Time,TemperatureF,DewpointF,PressureIn,WindDirection,WindDirectionDegrees,WindSpeedMPH,WindSpeedGustMPH,Humidity,HourlyPrecipIn,Conditions,Clouds,dailyrainin,SoftwareType,DateUTC
2013-02-12 00:01:00,53.0,53.0,30.08,East,90,2.0,6.0,99,0.30,,,1.99,,2013-02-12 06:01:00,
2013-02-12 00:12:00,53.0,53.0,30.06,ENE,77,1.0,6.0,99,0.35,,,1.99,,2013-02-12 06:12:00,
2013-02-12 00:21:00,53.0,53.0,30.06,ENE,77,1.0,6.0,99,0.35,,,1.99,,2013-02-12 06:21:00,
2013-02-12 00:32:00,53.0,53.0,30.08,NNE,20,0.0,3.0,99,0.37,,,2.04,,2013-02-12 06:32:00,
2013-02-12 00:42:00,53.0,53.0,30.06,East,88,1.0,5.0,99,0.33,,,2.12,,2013-02-12 06:42:00,
2013-02-12 00:52:00,53.0,53.0,30.06,East,88,1.0,5.0,99,0.33,,,2.12,,2013-02-12 06:52:00,
2013-02-12 01:01:00,53.0,53.0,30.06,East,88,1.0,5.0,99,0.33,,,2.12,,2013-02-12 07:01:00,
2013-02-12 01:11:00,53.0,53.0,30.06,East,88,1.0,5.0,99,0.33,,,2.12,,2013-02-12 07:11:00,
2013-02-12 01:21:00,53.0,53.0,30.06,NNE,30,1.0,4.0,99,0.15,,,2.13,,2013-02-12 07:21:00,
2013-02-12 01:31:00,53.0,53.0,30.06,ENE,77,0.0,5.0,99,0.13,,,2.11,,2013-02-12 07:31:00,
2013-02-12 01:42:00,53.0,53.0,30.06,ENE,77,0.0,5.0,99,0.13,,,2.11,,2013-02-12 07:42:00,
2013-02-12 01:51:00,53.0,53.0,30.06,East,84,0.0,3.0,99,0.03,,,2.11,,2013-02-12 07:51:00,
2013-02-12 02:01:00,53.0,53.0,30.06,East,93,0.0,3.0,99,0.01,,,2.11,,2013-02-12 08:01:00,
2013-02-12 02:11:00,53.0,53.0,30.06,East,93,0.0,3.0,99,0.01,,,2.11,,2013-02-12 08:11:00,
2013-02-12 02:21:00,53.0,53.0,30.05,East,84,0.0,4.0,99,0.00,,,2.11,,2013-02-12 08:21:00,
2013-02-12 02:32:00,53.0,53.0,30.04,ENE,72,0.0,4.0,99,0.00,,,2.11,,2013-02-12 08:32:00,
2013-02-12 02:41:00,53.0,53.0,30.04,ENE,72,0.0,4.0,99,0.00,,,2.11,,2013-02-12 08:41:00,
2013-02-12 02:52:00,53.0,53.0,30.03,East,86,1.0,4.0,99,0.00,,,2.11,,2013-02-12 08:52:00,
2013-02-12 03:01:00,53.0,53.0,30.03,ESE,120,0.0,4.0,99,0.00,,,2.11,,2013-02-12 09:01:00,
2013-02-12 03:11:00,53.0,53.0,30.03,ESE,120,0.0,4.0,99,0.00,,,2.11,,2013-02-12 09:11:00,
2013-02-12 03:21:00,53.0,53.0,30.02,NNE,25,0.0,5.0,99,0.00,,,2.09,,2013-02-12 09:21:00,
2013-02-12 03:32:00,53.0,53.0,30.01,East,92,0.0,4.0,99,0.00,,,2.09,,2013-02-12 09:32:00,
2013-02-12 03:42:00,53.0,53.0,30.01,East,92,0.0,4.0,99,0.00,,,2.09,,2013-02-12 09:42:00,
2013-02-12 03:52:00,53.0,53.0,30.01,East,92,0.0,4.0,99,0.00,,,2.09,,2013-02-12 09:52:00,
2013-02-12 04:01:00,53.0,53.0,30.01,East,92,0.0,4.0,99,0.00,,,2.09,,2013-02-12 10:01:00,
2013-02-12 04:11:00,53.0,53.0,30.00,ESE,117,1.0,6.0,99,0.02,,,2.11,,2013-02-12 10:11:00,
2013-02-12 04:21:00,53.0,53.0,30.00,ESE,117,1.0,6.0,99,0.02,,,2.11,,2013-02-12 10:21:00,
2013-02-12 04:32:00,53.0,53.0,29.99,ENE,71,1.0,6.0,99,0.05,,,2.14,,2013-02-12 10:32:00,
2013-02-12 04:43:00,53.0,53.0,29.99,ENE,71,1.0,6.0,99,0.05,,,2.14,,2013-02-12 10:43:00,
2013-02-12 04:51:00,53.0,53.0,29.99,East,93,0.0,4.0,99,0.06,,,2.15,,2013-02-12 10:51:00,
2013-02-12 05:01:00,53.0,53.0,29.98,NNE,29,0.0,5.0,99,0.05,,,2.15,,2013-02-12 11:01:00,
2013-02-12 05:11:00,53.0,53.0,29.98,NNE,29,0.0,5.0,99,0.05,,,2.15,,2013-02-12 11:11:00,
2013-02-12 05:21:00,53.0,53.0,29.98,ESE,114,2.0,8.0,99,0.04,,,2.15,,2013-02-12 11:21:00,
2013-02-12 05:32:00,53.0,53.0,29.98,ENE,69,2.0,8.0,100,0.00,,,1.94,,2013-02-12 11:32:00,
2013-02-12 05:41:00,53.0,53.0,29.98,ENE,69,2.0,8.0,100,0.00,,,1.94,,2013-02-12 11:41:00,
2013-02-12 05:52:00,53.0,53.0,29.98,ENE,77,1.0,9.0,99,0.01,,,1.95,,2013-02-12 11:52:00,
2013-02-12 06:01:00,53.0,53.0,29.98,NE,49,2.0,7.0,100,0.02,,,1.96,,2013-02-12 12:01:00,
2013-02-12 06:11:00,53.0,53.0,29.98,NE,49,2.0,7.0,100,0.02,,,1.96,,2013-02-12 12:11:00,
2013-02-12 06:21:00,53.0,53.0,29.96,ESE,107,2.0,5.0,100,0.02,,,1.94,,2013-02-12 12:21:00,
2013-02-12 06:32:00,53.0,53.0,29.96,East,88,3.0,8.0,100,0.02,,,1.94,,2013-02-12 12:32:00,
2013-02-12 06:42:00,53.0,53.0,29.96,East,88,3.0,8.0,100,0.02,,,1.94,,2013-02-12 12:42:00,
2013-02-12 06:53:00,53.0,53.0,29.96,East,88,3.0,8.0,100,0.02,,,1.94,,2013-02-12 12:53:00,
2013-02-12 07:01:00,53.0,53.0,29.95,ENE,76,3.0,6.0,100,0.01,,,1.94,,2013-02-12 13:01:00,
2013-02-12 07:11:00,53.0,53.0,29.95,ENE,76,3.0,6.0,100,0.01,,,1.94,,2013-02-12 13:11:00,
2013-02-12 07:22:00,53.0,53.0,29.94,East,98,4.0,8.0,100,0.00,,,1.94,,2013-02-12 13:22:00,
2013-02-12 07:32:00,54.0,54.0,29.94,ESE,114,4.0,9.0,99,0.00,,,1.88,,2013-02-12 13:32:00,
2013-02-12 07:42:00,54.0,54.0,29.94,ESE,114,4.0,9.0,99,0.00,,,1.88,,2013-02-12 13:42:00,
2013-02-12 07:51:00,54.0,54.0,29.94,ESE,114,4.0,9.0,99,0.00,,,1.88,,2013-02-12 13:51:00,
2013-02-12 08:01:00,54.0,54.0,29.94,ESE,113,3.0,7.0,100,0.00,,,1.88,,2013-02-12 14:01:00,
2013-02-12 08:11:00,54.0,54.0,29.94,ESE,113,3.0,7.0,100,0.00,,,1.88,,2013-02-12 14:11:00,
2013-02-12 08:21:00,54.0,54.0,29.94,East,97,3.0,7.0,100,0.00,,,1.88,,2013-02-12 14:21:00,
2013-02-12 08:32:00,54.0,54.0,29.94,ESE,108,2.0,7.0,100,0.00,,,1.87,,2013-02-12 14:32:00,
2013-02-12 08:42:00,54.0,54.0,29.94,ESE,108,2.0,7.0,100,0.00,,,1.87,,2013-02-12 14:42:00,
2013-02-12 08:52:00,54.0,54.0,29.95,East,89,3.0,7.0,100,0.00,,,1.87,,2013-02-12 14:52:00,
2013-02-12 09:02:00,54.0,54.0,29.95,East,89,3.0,7.0,100,0.00,,,1.87,,2013-02-12 15:02:00,
2013-02-12 09:11:00,55.0,55.0,29.94,East,88,3.0,6.0,100,0.00,,,1.87,,2013-02-12 15:11:00,
2013-02-12 09:21:00,55.0,55.0,29.94,East,88,3.0,6.0,100,0.00,,,1.87,,2013-02-12 15:21:00,
2013-02-12 09:32:00,55.0,55.0,29.93,ESE,116,3.0,7.0,100,0.00,,,1.70,,2013-02-12 15:32:00,
2013-02-12 09:42:00,55.0,55.0,29.93,ESE,116,3.0,7.0,100,0.00,,,1.70,,2013-02-12 15:42:00,
2013-02-12 09:52:00,55.0,55.0,29.92,ESE,104,3.0,8.0,100,0.00,,,1.70,,2013-02-12 15:52:00,
2013-02-12 10:01:00,56.0,56.0,29.91,ENE,76,4.0,7.0,100,0.00,,,1.70,,2013-02-12 16:01:00,
2013-02-12 10:11:00,56.0,56.0,29.91,ENE,76,4.0,7.0,100,0.00,,,1.70,,2013-02-12 16:11:00,
2013-02-12 10:22:00,56.0,56.0,29.91,East,99,4.0,7.0,100,0.00,,,1.59,,2013-02-12 16:22:00,
2013-02-12 10:31:00,56.0,56.0,29.91,ENE,73,1.0,6.0,100,0.00,,,1.59,,2013-02-12 16:31:00,
2013-02-12 10:41:00,56.0,56.0,29.91,ENE,73,1.0,6.0,100,0.00,,,1.59,,2013-02-12 16:41:00,
2013-02-12 10:52:00,56.0,56.0,29.91,ENE,73,1.0,6.0,100,0.00,,,1.59,,2013-02-12 16:52:00,
2013-02-12 11:01:00,56.0,56.0,29.91,ENE,73,1.0,6.0,100,0.00,,,1.59,,2013-02-12 17:01:00,
2013-02-12 11:12:00,56.0,56.0,29.91,ENE,73,1.0,6.0,100,0.00,,,1.59,,2013-02-12 17:12:00,
2013-02-12 11:21:00,57.0,57.0,29.91,ENE,74,3.0,5.0,100,0.00,,,1.59,,2013-02-12 17:21:00,
2013-02-12 11:32:00,57.0,57.0,29.90,ESE,120,2.0,8.0,100,0.00,,,1.35,,2013-02-12 17:32:00,
2013-02-12 11:42:00,57.0,57.0,29.90,ESE,120,2.0,8.0,100,0.00,,,1.35,,2013-02-12 17:42:00,
2013-02-12 11:52:00,57.0,57.0,29.88,ESE,110,3.0,7.0,100,0.00,,,1.35,,2013-02-12 17:52:00,
2013-02-12 12:01:00,58.0,58.0,29.88,ESE,118,2.0,6.0,100,0.00,,,1.35,,2013-02-12 18:01:00,
2013-02-12 12:11:00,58.0,58.0,29.88,ESE,118,2.0,6.0,100,0.00,,,1.35,,2013-02-12 18:11:00,
2013-02-12 12:23:00,58.0,58.0,29.87,SE,125,3.0,5.0,100,0.00,,,1.35,,2013-02-12 18:23:00,
2013-02-12 12:32:00,58.0,58.0,29.87,East,96,2.0,5.0,100,0.00,,,1.18,,2013-02-12 18:32:00,
2013-02-12 12:41:00,58.0,58.0,29.87,East,96,2.0,5.0,100,0.00,,,1.18,,2013-02-12 18:41:00,
2013-02-12 12:51:00,59.0,59.0,29.86,SE,139,2.0,4.0,100,0.00,,,1.18,,2013-02-12 18:51:00,
2013-02-12 13:02:00,59.0,59.0,29.85,ESE,118,1.0,3.0,100,0.01,,,1.19,,2013-02-12 19:02:00,
2013-02-12 13:11:00,59.0,59.0,29.85,ESE,118,1.0,3.0,100,0.01,,,1.19,,2013-02-12 19:11:00,
2013-02-12 13:21:00,59.0,59.0,29.84,ESE,115,2.0,3.0,100,0.01,,,1.19,,2013-02-12 19:21:00,
2013-02-12 13:31:00,59.0,59.0,29.82,ESE,108,2.0,4.0,100,0.04,,,1.20,,2013-02-12 19:31:00,
2013-02-12 13:41:00,59.0,59.0,29.82,ESE,108,2.0,4.0,100,0.04,,,1.20,,2013-02-12 19:41:00,
2013-02-12 13:51:00,60.0,60.0,29.81,ESE,115,0.0,2.0,100,0.04,,,1.20,,2013-02-12 19:51:00,
2013-02-12 14:01:00,60.0,60.0,29.81,ESE,115,0.0,2.0,100,0.04,,,1.20,,2013-02-12 20:01:00,
2013-02-12 14:11:00,60.0,60.0,29.81,ESE,115,0.0,2.0,100,0.04,,,1.20,,2013-02-12 20:11:00,
2013-02-12 14:21:00,60.0,60.0,29.80,ESE,112,1.0,3.0,100,0.03,,,1.20,,2013-02-12 20:21:00,
2013-02-12 14:31:00,60.0,60.0,29.79,ESE,116,0.0,3.0,100,0.03,,,1.19,,2013-02-12 20:31:00,
2013-02-12 14:41:00,60.0,60.0,29.79,ESE,116,0.0,3.0,100,0.03,,,1.19,,2013-02-12 20:41:00,
2013-02-12 14:52:00,61.0,61.0,29.79,NW,322,0.0,2.0,100,0.00,,,1.19,,2013-02-12 20:52:00,
2013-02-12 15:01:00,61.0,61.0,29.80,NW,323,0.0,1.0,100,0.00,,,1.19,,2013-02-12 21:01:00,
2013-02-12 15:11:00,61.0,61.0,29.80,NW,323,0.0,1.0,100,0.00,,,1.19,,2013-02-12 21:11:00,
2013-02-12 15:21:00,61.0,61.0,29.78,East,95,0.0,1.0,100,0.00,,,1.19,,2013-02-12 21:21:00,
2013-02-12 15:31:00,61.0,61.0,29.78,ESE,107,1.0,2.0,100,0.00,,,1.13,,2013-02-12 21:31:00,
2013-02-12 15:42:00,61.0,61.0,29.77,ENE,68,1.0,2.0,100,0.00,,,1.13,,2013-02-12 21:42:00,
2013-02-12 15:51:00,61.0,61.0,29.77,ENE,68,1.0,2.0,100,0.00,,,1.13,,2013-02-12 21:51:00,
2013-02-12 16:01:00,62.0,62.0,29.77,SSW,198,0.0,2.0,100,0.00,,,1.13,,2013-02-12 22:01:00,
2013-02-12 16:12:00,62.0,62.0,29.77,SSW,198,0.0,2.0,100,0.00,,,1.13,,2013-02-12 22:12:00,
2013-02-12 16:21:00,62.0,62.0,29.76,ESE,105,0.0,1.0,100,0.00,,,1.08,,2013-02-12 22:21:00,
2013-02-12 16:32:00,62.0,62.0,29.76,ESE,105,0.0,1.0,100,0.00,,,1.08,,2013-02-12 22:32:00,
2013-02-12 16:41:00,62.0,62.0,29.76,ESE,105,0.0,1.0,100,0.00,,,1.08,,2013-02-12 22:41:00,
2013-02-12 16:52:00,62.0,62.0,29.76,ESE,105,0.0,1.0,100,0.00,,,1.08,,2013-02-12 22:52:00,
2013-02-12 17:01:00,62.0,62.0,29.76,East,86,0.0,0.0,100,0.00,,,1.08,,2013-02-12 23:01:00,
2013-02-12 17:11:00,62.0,62.0,29.76,East,89,0.0,1.0,100,0.00,,,1.05,,2013-02-12 23:11:00,
2013-02-12 17:21:00,62.0,62.0,29.76,East,89,0.0,1.0,100,0.00,,,1.05,,2013-02-12 23:21:00,
2013-02-12 17:32:00,62.0,62.0,29.76,East,90,0.0,0.0,100,0.00,,,1.05,,2013-02-12 23:32:00,
2013-02-12 17:42:00,62.0,62.0,29.76,East,90,0.0,0.0,100,0.00,,,1.05,,2013-02-12 23:42:00,
2013-02-12 17:52:00,62.0,62.0,29.76,East,90,0.0,0.0,100,0.00,,,1.05,,2013-02-12 23:52:00,
2013-02-12 18:02:00,62.0,62.0,29.76,ESE,113,0.0,2.0,100,0.00,,,1.05,,2013-02-13 00:02:00,
2013-02-12 18:11:00,62.0,62.0,29.76,ESE,113,0.0,2.0,100,0.00,,,1.05,,2013-02-13 00:11:00,
2013-02-12 18:21:00,62.0,62.0,29.75,SE,138,0.0,3.0,100,0.00,,,1.05,,2013-02-13 00:21:00,
2013-02-12 18:32:00,62.0,62.0,29.76,ESE,109,0.0,1.0,100,0.00,,,1.04,,2013-02-13 00:32:00,
2013-02-12 18:42:00,62.0,62.0,29.76,ESE,109,0.0,1.0,100,0.00,,,1.04,,2013-02-13 00:42:00,
2013-02-12 18:52:00,62.0,62.0,29.78,NNW,333,1.0,3.0,100,0.00,,,1.04,,2013-02-13 00:52:00,
2013-02-12 19:01:00,64.0,64.0,29.80,NW,310,0.0,3.0,100,0.00,,,1.04,,2013-02-13 01:01:00,
2013-02-12 19:11:00,64.0,64.0,29.80,NW,310,0.0,3.0,100,0.00,,,1.04,,2013-02-13 01:11:00,
2013-02-12 19:21:00,64.0,64.0,29.80,NW,313,1.0,4.0,100,0.00,,,1.04,,2013-02-13 01:21:00,
2013-02-12 19:31:00,63.0,63.0,29.80,WSW,250,1.0,5.0,100,0.00,,,0.90,,2013-02-13 01:31:00,
2013-02-12 19:42:00,63.0,63.0,29.80,WSW,250,1.0,5.0,100,0.00,,,0.90,,2013-02-13 01:42:00,
2013-02-12 19:51:00,63.0,63.0,29.79,WSW,246,0.0,1.0,100,0.00,,,0.90,,2013-02-13 01:51:00,
2013-02-12 20:01:00,62.0,62.0,29.80,NW,323,1.0,2.0,100,0.00,,,0.90,,2013-02-13 02:01:00,
2013-02-12 20:11:00,62.0,62.0,29.80,NW,323,1.0,2.0,100,0.00,,,0.90,,2013-02-13 02:11:00,
2013-02-12 20:21:00,60.0,60.0,29.82,NW,325,1.0,4.0,99,0.00,,,0.90,,2013-02-13 02:21:00,
2013-02-12 20:31:00,60.0,60.0,29.81,NW,319,0.0,2.0,100,0.00,,,0.82,,2013-02-13 02:31:00,
2013-02-12 20:41:00,60.0,60.0,29.81,NW,319,0.0,2.0,100,0.00,,,0.82,,2013-02-13 02:41:00,
2013-02-12 20:52:00,59.0,59.0,29.83,NW,317,1.0,4.0,99,0.00,,,0.82,,2013-02-13 02:52:00,
2013-02-12 21:01:00,58.0,58.0,29.84,WNW,282,2.0,4.0,99,0.00,,,0.82,,2013-02-13 03:01:00,
2013-02-12 21:11:00,58.0,57.0,29.84,NW,318,1.0,6.0,98,0.00,,,0.63,,2013-02-13 03:11:00,
2013-02-12 21:21:00,58.0,57.0,29.84,NW,318,1.0,6.0,98,0.00,,,0.63,,2013-02-13 03:21:00,
2013-02-12 21:32:00,57.0,56.0,29.86,NW,317,4.0,7.0,98,0.00,,,0.63,,2013-02-13 03:32:00,
2013-02-12 21:41:00,57.0,56.0,29.86,NW,317,4.0,7.0,98,0.00,,,0.63,,2013-02-13 03:41:00,
2013-02-12 21:52:00,56.0,55.0,29.86,NNW,328,3.0,8.0,97,0.00,,,0.63,,2013-02-13 03:52:00,
2013-02-12 22:01:00,55.0,54.0,29.88,WNW,295,1.0,10.0,97,0.00,,,0.63,,2013-02-13 04:01:00,
2013-02-12 22:11:00,55.0,54.0,29.88,WNW,295,1.0,10.0,97,0.00,,,0.63,,2013-02-13 04:11:00,
2013-02-12 22:21:00,55.0,54.0,29.88,WNW,295,1.0,10.0,97,0.00,,,0.63,,2013-02-13 04:21:00,
2013-02-12 22:31:00,55.0,54.0,29.88,WNW,295,1.0,10.0,97,0.00,,,0.63,,2013-02-13 04:31:00,
2013-02-12 22:41:00,55.0,54.0,29.88,WNW,295,1.0,10.0,97,0.00,,,0.63,,2013-02-13 04:41:00,
2013-02-12 22:52:00,54.0,53.0,29.88,NW,322,2.0,6.0,97,0.00,,,0.62,,2013-02-13 04:52:00,
2013-02-12 23:01:00,54.0,53.0,29.90,WNW,293,2.0,8.0,97,0.00,,,0.62,,2013-02-13 05:01:00,
2013-02-12 23:11:00,54.0,53.0,29.90,WNW,293,2.0,8.0,97,0.00,,,0.62,,2013-02-13 05:11:00,
2013-02-12 23:22:00,53.0,52.0,29.90,WNW,300,2.0,6.0,97,0.00,,,0.62,,2013-02-13 05:22:00,
2013-02-12 23:31:00,53.0,52.0,29.90,NW,314,2.0,7.0,96,0.00,,,0.61,,2013-02-13 05:31:00,
2013-02-12 23:42:00,53.0,52.0,29.90,NW,314,2.0,7.0,96,0.00,,,0.61,,2013-02-13 05:42:00,
2013-02-12 23:52:00,53.0,52.0,29.90,WNW,294,1.0,3.0,96,0.00,,,0.61,,2013-02-13 05:52:00,